Terminal Aerodrome Forecast
Issued by NWS Blacksburg, VA

Current Version | Previous Version | Graphics & Text | Print | Product List | Glossary On
Versions: 1 2 3 4 5 6 7 8 9 10 11 12 13 14 15 16 17 18 19 20 21 22 23 24 25 26 27 28 29 30 31 32 33 34 35 36
000
FTUS41 KRNK 171220 AAB
TAFBLF
TAF AMD
KBLF 171220Z 1712/1812 00000KT 1/4SM FG BKN060
     FM171400 31003KT P6SM SCT045 BKN090
     FM180000 VRB03KT P6SM SCT045=

USA.gov is the U.S. government's official web portal to all federal, state and local government web resources and services.